date,time,SUV Intensity [MED/Hr],UV Index,Daily total [MED],Since Last [MED]
12/06/2023,00:02:52,0.000,0.0,0.0,0.0
12/06/2023,00:03:52,0.000,0.0,0.0,0.0
12/06/2023,00:04:52,0.000,0.0,0.0,0.0
12/06/2023,00:05:52,-0.000,0.0,0.0,0.0
12/06/2023,00:06:52,-0.000,0.0,0.0,0.0
12/06/2023,00:07:52,0.000,0.0,0.0,0.0
12/06/2023,00:08:52,0.000,0.0,0.0,0.0
12/06/2023,00:09:53,-0.000,0.0,0.0,0.0
12/06/2023,00:10:52,-0.000,0.0,0.0,0.0
12/06/2023,00:11:52,-0.001,0.0,0.0,0.0
12/06/2023,00:12:52,-0.001,0.0,0.0,0.0
12/06/2023,00:13:52,-0.000,0.0,0.0,0.0
12/06/2023,00:14:52,0.000,0.0,0.0,0.0
12/06/2023,00:15:52,0.001,0.0,0.0,0.0
12/06/2023,00:16:52,-0.001,0.0,0.0,0.0
12/06/2023,00:17:52,0.000,0.0,0.0,0.0
12/06/2023,00:18:52,0.000,0.0,0.0,0.0
12/06/2023,00:19:52,0.001,0.0,0.0,0.0
12/06/2023,00:20:52,0.001,0.0,0.0,0.0
12/06/2023,00:21:51,0.000,0.0,0.0,0.0
12/06/2023,00:22:52,0.000,0.0,0.0,0.0
12/06/2023,00:23:52,-0.000,0.0,0.0,0.0
12/06/2023,00:24:51,-0.000,0.0,0.0,0.0
12/06/2023,00:25:52,0.000,0.0,0.0,0.0
12/06/2023,00:26:52,-0.000,0.0,0.0,0.0
12/06/2023,00:27:52,-0.001,0.0,0.0,0.0
12/06/2023,00:28:52,0.000,0.0,0.0,0.0
12/06/2023,00:29:52,0.000,0.0,0.0,0.0
12/06/2023,00:30:52,0.000,0.0,0.0,0.0
12/06/2023,00:31:52,-0.000,0.0,0.0,0.0
12/06/2023,00:32:52,0.001,0.0,0.0,0.0
12/06/2023,00:33:52,0.000,0.0,0.0,0.0
12/06/2023,00:34:51,0.001,0.0,0.0,0.0
12/06/2023,00:35:52,-0.000,0.0,0.0,0.0
12/06/2023,00:36:52,0.001,0.0,0.0,0.0
12/06/2023,00:37:52,0.000,0.0,0.0,0.0
12/06/2023,00:38:52,-0.001,0.0,0.0,0.0
12/06/2023,00:39:52,0.000,0.0,0.0,0.0
12/06/2023,00:40:52,0.000,0.0,0.0,0.0
12/06/2023,00:41:52,-0.000,0.0,0.0,0.0
12/06/2023,00:42:52,0.000,0.0,0.0,0.0
12/06/2023,00:43:52,0.000,0.0,0.0,0.0
12/06/2023,00:44:52,-0.000,0.0,0.0,0.0
12/06/2023,00:45:52,-0.000,0.0,0.0,0.0
12/06/2023,00:46:52,0.000,0.0,0.0,0.0
12/06/2023,00:47:52,-0.001,0.0,0.0,0.0
12/06/2023,00:48:52,-0.000,0.0,0.0,0.0
12/06/2023,00:49:52,0.000,0.0,0.0,0.0
12/06/2023,00:50:52,0.000,0.0,0.0,0.0
12/06/2023,00:51:52,0.001,0.0,0.0,0.0
12/06/2023,00:52:52,-0.000,0.0,0.0,0.0
12/06/2023,00:53:52,0.000,0.0,0.0,0.0
12/06/2023,00:54:52,0.000,0.0,0.0,0.0
12/06/2023,00:55:52,0.000,0.0,0.0,0.0
12/06/2023,00:56:52,-0.000,0.0,0.0,0.0
12/06/2023,00:57:52,-0.000,0.0,0.0,0.0
12/06/2023,00:58:52,-0.000,0.0,0.0,0.0
12/06/2023,00:59:52,0.000,0.0,0.0,0.0
12/06/2023,01:00:52,-0.000,0.0,0.0,0.0
12/06/2023,01:01:52,-0.001,0.0,0.0,0.0
12/06/2023,01:02:52,-0.000,0.0,0.0,0.0
12/06/2023,01:03:51,0.000,0.0,0.0,0.0
12/06/2023,01:04:52,0.000,0.0,0.0,0.0
12/06/2023,01:05:52,-0.001,0.0,0.0,0.0
12/06/2023,01:06:52,0.000,0.0,0.0,0.0
12/06/2023,01:07:52,0.001,0.0,0.0,0.0
12/06/2023,01:08:52,0.000,0.0,0.0,0.0
12/06/2023,01:09:52,0.001,0.0,0.0,0.0
12/06/2023,01:10:52,0.000,0.0,0.0,0.0
12/06/2023,01:11:52,-0.000,0.0,0.0,0.0
12/06/2023,01:12:52,0.001,0.0,0.0,0.0
12/06/2023,01:13:52,0.000,0.0,0.0,0.0
12/06/2023,01:14:53,0.000,0.0,0.0,0.0
12/06/2023,01:15:52,0.000,0.0,0.0,0.0
12/06/2023,01:16:52,0.000,0.0,0.0,0.0
12/06/2023,01:17:51,-0.000,0.0,0.0,0.0
12/06/2023,01:18:52,-0.001,0.0,0.0,0.0
12/06/2023,01:19:52,0.000,0.0,0.0,0.0
12/06/2023,01:20:52,0.000,0.0,0.0,0.0
12/06/2023,01:21:52,0.000,0.0,0.0,0.0
12/06/2023,01:22:52,0.001,0.0,0.0,0.0
12/06/2023,01:23:52,0.000,0.0,0.0,0.0
12/06/2023,01:24:52,-0.002,0.0,0.0,0.0
12/06/2023,01:25:52,0.000,0.0,0.0,0.0
12/06/2023,01:26:52,0.001,0.0,0.0,0.0
12/06/2023,01:27:52,0.000,0.0,0.0,0.0
12/06/2023,01:28:52,-0.000,0.0,0.0,0.0
12/06/2023,01:29:52,0.000,0.0,0.0,0.0
12/06/2023,01:30:52,0.001,0.0,0.0,0.0
12/06/2023,01:31:52,-0.000,0.0,0.0,0.0
12/06/2023,01:32:52,-0.000,0.0,0.0,0.0
12/06/2023,01:33:52,0.001,0.0,0.0,0.0
12/06/2023,01:34:52,0.001,0.0,0.0,0.0
12/06/2023,01:35:52,-0.000,0.0,0.0,0.0
12/06/2023,01:36:52,-0.000,0.0,0.0,0.0
12/06/2023,01:37:53,-0.000,0.0,0.0,0.0
12/06/2023,01:38:52,-0.000,0.0,0.0,0.0
12/06/2023,01:39:52,-0.000,0.0,0.0,0.0
12/06/2023,01:40:52,-0.000,0.0,0.0,0.0
12/06/2023,01:41:52,-0.001,0.0,0.0,0.0
12/06/2023,01:42:52,0.000,0.0,0.0,0.0
12/06/2023,01:43:52,0.001,0.0,0.0,0.0
12/06/2023,01:44:53,-0.000,0.0,0.0,0.0
12/06/2023,01:45:52,0.000,0.0,0.0,0.0
12/06/2023,01:46:52,0.000,0.0,0.0,0.0
12/06/2023,01:47:52,-0.000,0.0,0.0,0.0
12/06/2023,01:48:52,-0.000,0.0,0.0,0.0
12/06/2023,01:49:52,-0.000,0.0,0.0,0.0
12/06/2023,01:50:52,-0.000,0.0,0.0,0.0
12/06/2023,01:51:51,-0.000,0.0,0.0,0.0
12/06/2023,01:52:52,0.000,0.0,0.0,0.0
12/06/2023,01:53:52,-0.000,0.0,0.0,0.0
12/06/2023,01:54:52,-0.001,0.0,0.0,0.0
12/06/2023,01:55:52,-0.000,0.0,0.0,0.0
12/06/2023,01:56:53,-0.000,0.0,0.0,0.0
12/06/2023,01:57:52,-0.001,0.0,0.0,0.0
12/06/2023,01:58:52,-0.000,0.0,0.0,0.0
12/06/2023,01:59:52,0.001,0.0,0.0,0.0
12/06/2023,02:00:52,-0.001,0.0,0.0,0.0
12/06/2023,02:01:53,-0.000,0.0,0.0,0.0
12/06/2023,02:02:52,0.000,0.0,0.0,0.0
12/06/2023,02:03:52,-0.001,0.0,0.0,0.0
12/06/2023,02:04:52,-0.000,0.0,0.0,0.0
12/06/2023,02:05:52,-0.000,0.0,0.0,0.0
12/06/2023,02:06:52,0.001,0.0,0.0,0.0
12/06/2023,02:07:52,0.001,0.0,0.0,0.0
12/06/2023,02:08:53,-0.000,0.0,0.0,0.0
12/06/2023,02:09:52,0.000,0.0,0.0,0.0
12/06/2023,02:10:52,0.000,0.0,0.0,0.0
12/06/2023,02:11:53,-0.001,0.0,0.0,0.0
12/06/2023,02:12:52,-0.000,0.0,0.0,0.0
12/06/2023,02:13:52,-0.000,0.0,0.0,0.0
12/06/2023,02:14:53,-0.000,0.0,0.0,0.0
12/06/2023,02:15:52,0.001,0.0,0.0,0.0
12/06/2023,02:16:52,-0.000,0.0,0.0,0.0
12/06/2023,02:17:51,-0.000,0.0,0.0,0.0
12/06/2023,02:18:52,-0.000,0.0,0.0,0.0
12/06/2023,02:19:52,-0.000,0.0,0.0,0.0
12/06/2023,02:20:53,0.000,0.0,0.0,0.0
12/06/2023,02:21:52,-0.000,0.0,0.0,0.0
12/06/2023,02:22:53,-0.000,0.0,0.0,0.0
12/06/2023,02:23:52,-0.001,0.0,0.0,0.0
12/06/2023,02:24:52,-0.000,0.0,0.0,0.0
12/06/2023,02:25:52,-0.001,0.0,0.0,0.0
12/06/2023,02:26:52,-0.000,0.0,0.0,0.0
12/06/2023,02:27:52,-0.001,0.0,0.0,0.0
12/06/2023,02:28:53,0.001,0.0,0.0,0.0
12/06/2023,02:29:52,0.000,0.0,0.0,0.0
12/06/2023,02:30:52,0.000,0.0,0.0,0.0
12/06/2023,02:31:52,-0.000,0.0,0.0,0.0
12/06/2023,02:32:53,0.000,0.0,0.0,0.0
12/06/2023,02:33:52,-0.000,0.0,0.0,0.0
12/06/2023,02:34:52,-0.000,0.0,0.0,0.0
12/06/2023,02:35:52,0.001,0.0,0.0,0.0
12/06/2023,02:36:52,0.000,0.0,0.0,0.0
12/06/2023,02:37:52,-0.000,0.0,0.0,0.0
12/06/2023,02:38:53,-0.001,0.0,0.0,0.0
12/06/2023,02:39:53,0.001,0.0,0.0,0.0
12/06/2023,02:40:52,0.001,0.0,0.0,0.0
12/06/2023,02:41:52,0.000,0.0,0.0,0.0
12/06/2023,02:42:52,0.001,0.0,0.0,0.0
12/06/2023,02:43:53,0.000,0.0,0.0,0.0
12/06/2023,02:44:52,0.000,0.0,0.0,0.0
12/06/2023,02:45:53,-0.000,0.0,0.0,0.0
12/06/2023,02:46:52,0.001,0.0,0.0,0.0
12/06/2023,02:47:52,0.001,0.0,0.0,0.0
12/06/2023,02:48:52,-0.000,0.0,0.0,0.0
12/06/2023,02:49:52,0.000,0.0,0.0,0.0
12/06/2023,02:50:52,-0.000,0.0,0.0,0.0
12/06/2023,02:51:52,0.000,0.0,0.0,0.0
12/06/2023,02:52:53,0.000,0.0,0.0,0.0
12/06/2023,02:53:52,0.000,0.0,0.0,0.0
12/06/2023,02:54:52,0.000,0.0,0.0,0.0
12/06/2023,02:55:52,0.000,0.0,0.0,0.0
12/06/2023,02:56:53,-0.001,0.0,0.0,0.0
12/06/2023,02:57:52,0.000,0.0,0.0,0.0
12/06/2023,02:58:52,-0.000,0.0,0.0,0.0
12/06/2023,02:59:52,-0.000,0.0,0.0,0.0
12/06/2023,03:00:52,0.000,0.0,0.0,0.0
12/06/2023,03:01:52,0.000,0.0,0.0,0.0
12/06/2023,03:02:53,0.000,0.0,0.0,0.0
12/06/2023,03:03:52,-0.001,0.0,0.0,0.0
12/06/2023,03:04:52,0.000,0.0,0.0,0.0
12/06/2023,03:05:52,0.000,0.0,0.0,0.0
12/06/2023,03:06:52,-0.001,0.0,0.0,0.0
12/06/2023,03:07:56,0.000,0.0,0.0,0.0
12/06/2023,03:08:52,-0.001,0.0,0.0,0.0
12/06/2023,03:09:52,0.000,0.0,0.0,0.0
12/06/2023,03:10:53,-0.001,0.0,0.0,0.0
12/06/2023,03:11:52,-0.001,0.0,0.0,0.0
12/06/2023,03:12:52,-0.000,0.0,0.0,0.0
12/06/2023,03:13:52,-0.000,0.0,0.0,0.0
12/06/2023,03:14:53,0.000,0.0,0.0,0.0
12/06/2023,03:15:52,0.001,0.0,0.0,0.0
12/06/2023,03:16:52,0.000,0.0,0.0,0.0
12/06/2023,03:17:52,0.001,0.0,0.0,0.0
12/06/2023,03:18:53,0.000,0.0,0.0,0.0
12/06/2023,03:19:52,0.000,0.0,0.0,0.0
12/06/2023,03:20:52,0.000,0.0,0.0,0.0
12/06/2023,03:21:52,0.000,0.0,0.0,0.0
12/06/2023,03:22:52,0.000,0.0,0.0,0.0
12/06/2023,03:23:53,0.000,0.0,0.0,0.0
12/06/2023,03:24:52,0.000,0.0,0.0,0.0
12/06/2023,03:25:52,0.001,0.0,0.0,0.0
12/06/2023,03:26:53,0.001,0.0,0.0,0.0
12/06/2023,03:27:52,0.000,0.0,0.0,0.0
12/06/2023,03:28:53,0.000,0.0,0.0,0.0
12/06/2023,03:29:53,0.000,0.0,0.0,0.0
12/06/2023,03:30:52,0.000,0.0,0.0,0.0
12/06/2023,03:31:52,0.000,0.0,0.0,0.0
12/06/2023,03:32:53,0.001,0.0,0.0,0.0
12/06/2023,03:33:53,0.001,0.0,0.0,0.0
12/06/2023,03:34:52,0.001,0.0,0.0,0.0
12/06/2023,03:35:53,0.001,0.0,0.0,0.0
12/06/2023,03:36:53,0.001,0.0,0.0,0.0
12/06/2023,03:37:53,0.001,0.0,0.0,0.0
12/06/2023,03:38:52,0.001,0.0,0.0,0.0
12/06/2023,03:39:52,0.001,0.0,0.0,0.0
12/06/2023,03:40:52,0.001,0.0,0.0,0.0
12/06/2023,03:41:52,0.001,0.0,0.0,0.0
12/06/2023,03:42:53,0.001,0.0,0.0,0.0
12/06/2023,03:43:52,0.001,0.0,0.0,0.0
12/06/2023,03:44:53,0.002,0.0,0.0,0.0
12/06/2023,03:45:52,0.001,0.0,0.0,0.0
12/06/2023,03:46:53,0.001,0.0,0.0,0.0
12/06/2023,03:47:52,0.001,0.0,0.0,0.0
12/06/2023,03:48:52,0.001,0.0,0.0,0.0
12/06/2023,03:49:52,0.002,0.0,0.0,0.0
12/06/2023,03:50:53,0.002,0.0,0.0,0.0
12/06/2023,03:51:52,0.002,0.0,0.0,0.0
12/06/2023,03:52:53,0.002,0.0,0.0,0.0
12/06/2023,03:53:52,0.001,0.0,0.0,0.0
12/06/2023,03:54:52,0.002,0.0,0.0,0.0
12/06/2023,03:55:52,0.002,0.0,0.0,0.0
12/06/2023,03:56:53,0.003,0.0,0.0,0.0
12/06/2023,03:57:52,0.002,0.0,0.0,0.0
12/06/2023,03:58:52,0.002,0.0,0.0,0.0
12/06/2023,03:59:53,0.002,0.0,0.0,0.0
12/06/2023,04:00:52,0.002,0.0,0.0,0.0
12/06/2023,04:01:53,0.003,0.0,0.0,0.0
12/06/2023,04:02:52,0.001,0.0,0.0,0.0
12/06/2023,04:03:52,0.002,0.0,0.0,0.0
12/06/2023,04:04:53,0.002,0.0,0.0,0.0
12/06/2023,04:05:52,0.003,0.0,0.0,0.0
12/06/2023,04:06:53,0.002,0.0,0.0,0.0
12/06/2023,04:07:53,0.003,0.0,0.0,0.0
12/06/2023,04:08:52,0.003,0.0,0.0,0.0
12/06/2023,04:09:52,0.003,0.0,0.0,0.0
12/06/2023,04:10:52,0.003,0.0,0.0,0.0
12/06/2023,04:11:53,0.004,0.0,0.0,0.0
12/06/2023,04:12:53,0.004,0.0,0.0,0.0
12/06/2023,04:13:52,0.006,0.0,0.0,0.0
12/06/2023,04:14:56,0.005,0.0,0.0,0.0
12/06/2023,04:15:53,0.005,0.0,0.0,0.0
12/06/2023,04:16:52,0.005,0.0,0.0,0.0
12/06/2023,04:17:52,0.005,0.0,0.0,0.0
12/06/2023,04:18:53,0.005,0.0,0.0,0.0
12/06/2023,04:19:52,0.007,0.0,0.0,0.0
12/06/2023,04:20:52,0.006,0.0,0.0,0.0
12/06/2023,04:21:52,0.006,0.0,0.0,0.0
12/06/2023,04:22:52,0.006,0.0,0.0,0.0
12/06/2023,04:23:53,0.007,0.0,0.0,0.0
12/06/2023,04:24:52,0.007,0.0,0.001,0.001
12/06/2023,04:25:53,0.007,0.0,0.001,0.0
12/06/2023,04:26:52,0.007,0.0,0.001,0.0
12/06/2023,04:27:53,0.008,0.0,0.001,0.0
12/06/2023,04:28:52,0.008,0.0,0.001,0.0
12/06/2023,04:29:53,0.008,0.0,0.001,0.0
12/06/2023,04:30:53,0.009,0.0,0.001,0.0
12/06/2023,04:31:52,0.008,0.0,0.001,0.0
12/06/2023,04:32:53,0.009,0.0,0.002,0.001
12/06/2023,04:33:53,0.009,0.0,0.002,0.0
12/06/2023,04:34:53,0.009,0.0,0.002,0.0
12/06/2023,04:35:52,0.009,0.0,0.002,0.0
12/06/2023,04:36:52,0.011,0.0,0.002,0.0
12/06/2023,04:37:53,0.011,0.0,0.002,0.0
12/06/2023,04:38:52,0.013,0.0,0.003,0.001
12/06/2023,04:39:52,0.013,0.0,0.003,0.0
12/06/2023,04:40:53,0.013,0.0,0.003,0.0
12/06/2023,04:41:52,0.014,0.0,0.003,0.0
12/06/2023,04:42:53,0.015,0.0,0.003,0.0
12/06/2023,04:43:52,0.015,0.0,0.004,0.001
12/06/2023,04:44:53,0.016,0.0,0.004,0.0
12/06/2023,04:45:53,0.017,0.0,0.004,0.0
12/06/2023,04:46:52,0.016,0.0,0.005,0.001
12/06/2023,04:47:53,0.019,0.0,0.005,0.0
12/06/2023,04:48:52,0.019,0.0,0.005,0.0
12/06/2023,04:49:53,0.021,0.0,0.005,0.0
12/06/2023,04:50:53,0.020,0.0,0.006,0.001
12/06/2023,04:51:52,0.022,0.0,0.006,0.0
12/06/2023,04:52:53,0.022,0.0,0.006,0.0
12/06/2023,04:53:52,0.023,0.0,0.007,0.001
12/06/2023,04:54:53,0.024,0.0,0.007,0.0
12/06/2023,04:55:52,0.024,0.0,0.008,0.001
12/06/2023,04:56:53,0.026,0.0,0.008,0.0
12/06/2023,04:57:53,0.026,0.0,0.008,0.0
12/06/2023,04:58:53,0.027,0.0,0.009,0.001
12/06/2023,04:59:53,0.028,0.0,0.009,0.0
12/06/2023,05:00:52,0.029,0.0,0.01,0.001
12/06/2023,05:01:53,0.030,0.0,0.01,0.0
12/06/2023,05:02:53,0.030,0.0,0.011,0.001
12/06/2023,05:03:52,0.031,0.0,0.011,0.0
12/06/2023,05:04:53,0.032,0.0,0.012,0.001
12/06/2023,05:05:52,0.033,0.0,0.012,0.0
12/06/2023,05:06:52,0.034,0.0,0.013,0.001
12/06/2023,05:07:53,0.035,0.0,0.014,0.001
12/06/2023,05:08:52,0.035,0.0,0.014,0.0
12/06/2023,05:09:53,0.037,0.0,0.015,0.001
12/06/2023,05:10:52,0.038,0.0,0.015,0.0
12/06/2023,05:11:53,0.039,0.0,0.016,0.001
12/06/2023,05:12:52,0.040,0.0,0.017,0.001
12/06/2023,05:13:52,0.041,0.0,0.017,0.0
12/06/2023,05:14:53,0.043,0.0,0.018,0.001
12/06/2023,05:15:53,0.043,0.0,0.019,0.001
12/06/2023,05:16:52,0.044,0.0,0.019,0.0
12/06/2023,05:17:53,0.045,0.0,0.02,0.001
12/06/2023,05:18:52,0.046,0.0,0.021,0.001
12/06/2023,05:19:53,0.047,0.0,0.022,0.001
12/06/2023,05:20:52,0.047,0.0,0.023,0.001
12/06/2023,05:21:53,0.048,0.0,0.023,0.0
12/06/2023,05:22:52,0.049,0.0,0.024,0.001
12/06/2023,05:23:53,0.050,0.0,0.025,0.001
12/06/2023,05:24:53,0.051,0.0,0.026,0.001
12/06/2023,05:25:52,0.051,0.0,0.027,0.001
12/06/2023,05:26:53,0.051,0.0,0.028,0.001
12/06/2023,05:27:53,0.052,0.0,0.028,0.0
12/06/2023,05:28:52,0.053,0.0,0.029,0.001
12/06/2023,05:29:52,0.052,0.0,0.03,0.001
12/06/2023,05:30:53,0.053,0.0,0.031,0.001
12/06/2023,05:31:52,0.053,0.0,0.032,0.001
12/06/2023,05:32:52,0.053,0.0,0.033,0.001
12/06/2023,05:33:53,0.054,0.0,0.034,0.001
12/06/2023,05:34:52,0.054,0.0,0.035,0.001
12/06/2023,05:35:53,0.055,0.0,0.035,0.0
12/06/2023,05:36:52,0.055,0.0,0.036,0.001
12/06/2023,05:37:53,0.055,0.0,0.037,0.001
12/06/2023,05:38:53,0.056,0.0,0.038,0.001
12/06/2023,05:39:53,0.059,0.0,0.039,0.001
12/06/2023,05:40:52,0.060,0.0,0.04,0.001
12/06/2023,05:41:53,0.064,0.0,0.041,0.001
12/06/2023,05:42:52,0.066,0.0,0.042,0.001
12/06/2023,05:43:53,0.070,0.0,0.043,0.001
12/06/2023,05:44:53,0.072,0.0,0.045,0.002
12/06/2023,05:45:52,0.074,0.0,0.046,0.001
12/06/2023,05:46:52,0.076,0.0,0.047,0.001
12/06/2023,05:47:53,0.080,0.0,0.048,0.001
12/06/2023,05:48:53,0.083,0.0,0.05,0.002
12/06/2023,05:49:53,0.085,0.0,0.051,0.001
12/06/2023,05:50:52,0.088,0.0,0.053,0.002
12/06/2023,05:51:53,0.090,0.0,0.054,0.001
12/06/2023,05:52:53,0.093,0.0,0.056,0.002
12/06/2023,05:53:52,0.093,0.0,0.057,0.001
12/06/2023,05:54:52,0.093,0.0,0.059,0.002
12/06/2023,05:55:52,0.094,0.0,0.06,0.001
12/06/2023,05:56:53,0.094,0.0,0.062,0.002
12/06/2023,05:57:52,0.092,0.0,0.063,0.001
12/06/2023,05:58:52,0.093,0.0,0.065,0.002
12/06/2023,05:59:53,0.093,0.0,0.066,0.001
12/06/2023,06:00:52,0.094,0.0,0.068,0.002
12/06/2023,06:01:53,0.095,0.0,0.07,0.002
12/06/2023,06:02:52,0.096,0.0,0.071,0.001
12/06/2023,06:03:53,0.097,0.0,0.073,0.002
12/06/2023,06:04:53,0.097,0.0,0.074,0.001
12/06/2023,06:05:52,0.098,0.0,0.076,0.002
12/06/2023,06:06:54,0.099,0.0,0.078,0.002
12/06/2023,06:07:54,0.100,0.0,0.079,0.001
12/06/2023,06:08:52,0.101,0.0,0.081,0.002
12/06/2023,06:09:52,0.102,0.0,0.083,0.002
12/06/2023,06:10:53,0.104,0.0,0.084,0.001
12/06/2023,06:11:52,0.107,0.0,0.086,0.002
12/06/2023,06:12:53,0.110,0.0,0.088,0.002
12/06/2023,06:13:53,0.114,0.0,0.09,0.002
12/06/2023,06:14:52,0.120,0.0,0.092,0.002
12/06/2023,06:15:53,0.124,0.0,0.094,0.002
12/06/2023,06:16:52,0.130,0.0,0.096,0.002
12/06/2023,06:17:53,0.140,0.0,0.098,0.002
12/06/2023,06:18:52,0.145,0.0,0.1,0.002
12/06/2023,06:19:53,0.150,0.0,0.103,0.003
12/06/2023,06:20:52,0.156,0.0,0.105,0.002
12/06/2023,06:21:53,0.161,0.0,0.108,0.003
12/06/2023,06:22:52,0.165,0.0,0.111,0.003
12/06/2023,06:23:56,0.170,0.0,0.114,0.003
12/06/2023,06:24:53,0.176,0.0,0.117,0.003
12/06/2023,06:25:53,0.182,0.0,0.12,0.003
12/06/2023,06:26:53,0.183,0.0,0.123,0.003
12/06/2023,06:27:53,0.190,0.0,0.126,0.003
12/06/2023,06:28:52,0.196,0.0,0.129,0.003
12/06/2023,06:29:53,0.198,0.0,0.132,0.003
12/06/2023,06:30:52,0.197,0.0,0.135,0.003
12/06/2023,06:31:52,0.205,0.0,0.139,0.004
12/06/2023,06:32:52,0.207,0.0,0.142,0.003
12/06/2023,06:33:52,0.211,0.0,0.146,0.004
12/06/2023,06:34:52,0.207,0.0,0.149,0.003
12/06/2023,06:35:53,0.210,0.0,0.153,0.004
12/06/2023,06:36:53,0.217,0.0,0.156,0.003
12/06/2023,06:37:52,0.222,1.0,0.16,0.004
12/06/2023,06:38:53,0.227,1.0,0.164,0.004
12/06/2023,06:39:52,0.231,1.0,0.167,0.003
12/06/2023,06:40:53,0.237,1.0,0.171,0.004
12/06/2023,06:41:52,0.239,1.0,0.175,0.004
12/06/2023,06:42:52,0.243,1.0,0.179,0.004
12/06/2023,06:43:52,0.247,1.0,0.183,0.004
12/06/2023,06:44:52,0.250,1.0,0.188,0.005
12/06/2023,06:45:53,0.253,1.0,0.192,0.004
12/06/2023,06:46:53,0.254,1.0,0.196,0.004
12/06/2023,06:47:53,0.256,1.0,0.2,0.004
12/06/2023,06:48:52,0.252,1.0,0.204,0.004
12/06/2023,06:49:53,0.254,1.0,0.209,0.005
12/06/2023,06:50:52,0.255,1.0,0.213,0.004
12/06/2023,06:51:53,0.256,1.0,0.217,0.004
12/06/2023,06:52:52,0.257,1.0,0.222,0.005
12/06/2023,06:53:53,0.257,1.0,0.226,0.004
12/06/2023,06:54:53,0.259,1.0,0.23,0.004
12/06/2023,06:55:52,0.262,1.0,0.234,0.004
12/06/2023,06:56:53,0.264,1.0,0.239,0.005
12/06/2023,06:57:53,0.267,1.0,0.243,0.004
12/06/2023,06:58:52,0.269,1.0,0.248,0.005
12/06/2023,06:59:53,0.273,1.0,0.252,0.004
12/06/2023,07:00:52,0.277,1.0,0.257,0.005
12/06/2023,07:01:53,0.281,1.0,0.261,0.004
12/06/2023,07:02:53,0.285,1.0,0.266,0.005
12/06/2023,07:03:52,0.288,1.0,0.271,0.005
12/06/2023,07:04:52,0.292,1.0,0.276,0.005
12/06/2023,07:05:54,0.296,1.0,0.281,0.005
12/06/2023,07:06:53,0.301,1.0,0.286,0.005
12/06/2023,07:07:52,0.306,1.0,0.291,0.005
12/06/2023,07:08:53,0.314,1.0,0.296,0.005
12/06/2023,07:09:52,0.342,1.0,0.301,0.005
12/06/2023,07:10:53,0.359,1.0,0.307,0.006
12/06/2023,07:11:53,0.368,1.0,0.313,0.006
12/06/2023,07:12:52,0.377,1.0,0.32,0.007
12/06/2023,07:13:53,0.384,1.0,0.326,0.006
12/06/2023,07:14:53,0.377,1.0,0.332,0.006
12/06/2023,07:15:52,0.368,1.0,0.338,0.006
12/06/2023,07:16:53,0.367,1.0,0.344,0.006
12/06/2023,07:17:52,0.370,1.0,0.351,0.007
12/06/2023,07:18:53,0.385,1.0,0.357,0.006
12/06/2023,07:19:53,0.415,1.0,0.364,0.007
12/06/2023,07:20:52,0.439,1.0,0.371,0.007
12/06/2023,07:21:53,0.454,1.0,0.378,0.007
12/06/2023,07:22:52,0.451,1.0,0.386,0.008
12/06/2023,07:23:53,0.458,1.0,0.394,0.008
12/06/2023,07:24:52,0.463,1.0,0.401,0.007
12/06/2023,07:25:53,0.499,1.0,0.409,0.008
12/06/2023,07:26:53,0.513,1.0,0.417,0.008
12/06/2023,07:27:53,0.519,1.0,0.426,0.009
12/06/2023,07:28:52,0.527,1.0,0.435,0.009
12/06/2023,07:29:52,0.533,1.0,0.444,0.009
12/06/2023,07:30:53,0.531,1.0,0.453,0.009
12/06/2023,07:31:53,0.534,1.0,0.462,0.009
12/06/2023,07:32:53,0.507,1.0,0.47,0.008
12/06/2023,07:33:52,0.505,1.0,0.479,0.009
12/06/2023,07:34:53,0.543,1.0,0.488,0.009
12/06/2023,07:35:52,0.503,1.0,0.496,0.008
12/06/2023,07:36:53,0.503,1.0,0.504,0.008
12/06/2023,07:37:53,0.512,1.0,0.513,0.009
12/06/2023,07:38:53,0.542,1.0,0.522,0.009
12/06/2023,07:39:52,0.534,1.0,0.53,0.008
12/06/2023,07:40:53,0.535,1.0,0.539,0.009
12/06/2023,07:41:53,0.546,1.0,0.548,0.009
12/06/2023,07:42:52,0.498,1.0,0.557,0.009
12/06/2023,07:43:53,0.477,1.0,0.565,0.008
12/06/2023,07:44:53,0.464,1.0,0.573,0.008
12/06/2023,07:45:52,0.459,1.0,0.581,0.008
12/06/2023,07:46:53,0.450,1.0,0.588,0.007
12/06/2023,07:47:52,0.449,1.0,0.596,0.008
12/06/2023,07:48:53,0.449,1.0,0.603,0.007
12/06/2023,07:49:53,0.450,1.0,0.611,0.008
12/06/2023,07:50:53,0.454,1.0,0.618,0.007
12/06/2023,07:51:53,0.461,1.0,0.626,0.008
12/06/2023,07:52:53,0.469,1.0,0.634,0.008
12/06/2023,07:53:52,0.486,1.0,0.642,0.008
12/06/2023,07:54:53,0.504,1.0,0.65,0.008
12/06/2023,07:55:53,0.538,1.0,0.659,0.009
12/06/2023,07:56:53,0.555,1.0,0.668,0.009
12/06/2023,07:57:51,0.574,1.0,0.677,0.009
12/06/2023,07:58:52,0.574,1.0,0.687,0.01
12/06/2023,07:59:53,0.594,1.0,0.696,0.009
12/06/2023,08:00:53,0.605,1.0,0.707,0.011
12/06/2023,08:01:52,0.630,1.0,0.717,0.01
12/06/2023,08:02:52,0.670,2.0,0.728,0.011
12/06/2023,08:03:53,0.702,2.0,0.739,0.011
12/06/2023,08:04:54,0.721,2.0,0.751,0.012
12/06/2023,08:05:53,0.737,2.0,0.764,0.013
12/06/2023,08:06:52,0.786,2.0,0.776,0.012
12/06/2023,08:07:53,0.738,2.0,0.789,0.013
12/06/2023,08:08:53,0.729,2.0,0.802,0.013
12/06/2023,08:09:52,0.703,2.0,0.813,0.011
12/06/2023,08:10:54,0.654,2.0,0.825,0.012
12/06/2023,08:11:54,0.637,1.0,0.836,0.011
12/06/2023,08:12:52,0.710,2.0,0.847,0.011
12/06/2023,08:14:22,0.756,2.0,0.865,0.018
12/06/2023,08:15:53,0.846,2.0,0.885,0.02
12/06/2023,08:16:53,0.861,2.0,0.899,0.014
12/06/2023,08:17:52,0.868,2.0,0.913,0.014
12/06/2023,08:18:52,0.872,2.0,0.928,0.015
12/06/2023,08:19:53,0.836,2.0,0.942,0.014
12/06/2023,08:20:52,0.863,2.0,0.956,0.014
12/06/2023,08:21:53,0.895,2.0,0.971,0.015
12/06/2023,08:22:53,0.905,2.0,0.986,0.015
12/06/2023,08:23:53,0.800,2.0,1.0,0.014
12/06/2023,08:24:53,0.893,2.0,1.013,0.013
12/06/2023,08:25:53,0.819,2.0,1.028,0.015
12/06/2023,08:26:52,0.892,2.0,1.042,0.014
12/06/2023,08:27:53,0.791,2.0,1.056,0.014
12/06/2023,08:28:53,0.789,2.0,1.069,0.013
12/06/2023,08:29:52,0.894,2.0,1.083,0.014
12/06/2023,08:30:53,0.748,2.0,1.098,0.015
12/06/2023,08:31:53,0.740,2.0,1.11,0.012
12/06/2023,08:32:52,0.716,2.0,1.122,0.012
12/06/2023,08:33:53,0.730,2.0,1.134,0.012
12/06/2023,08:34:53,0.687,2.0,1.146,0.012
12/06/2023,08:35:52,0.678,2.0,1.158,0.012
12/06/2023,08:36:53,0.698,2.0,1.169,0.011
12/06/2023,08:37:52,0.727,2.0,1.181,0.012
12/06/2023,08:38:53,0.730,2.0,1.193,0.012
12/06/2023,08:39:53,0.736,2.0,1.206,0.013
12/06/2023,08:40:53,0.726,2.0,1.217,0.011
12/06/2023,08:41:52,0.714,2.0,1.229,0.012
12/06/2023,08:42:53,0.736,2.0,1.241,0.012
12/06/2023,08:43:53,0.731,2.0,1.254,0.013
12/06/2023,08:44:53,0.749,2.0,1.266,0.012
12/06/2023,08:45:53,0.770,2.0,1.279,0.013
12/06/2023,08:46:53,0.785,2.0,1.292,0.013
12/06/2023,08:47:52,0.802,2.0,1.305,0.013
12/06/2023,08:48:53,0.820,2.0,1.319,0.014
12/06/2023,08:49:53,0.823,2.0,1.332,0.013
12/06/2023,08:50:53,0.837,2.0,1.347,0.015
12/06/2023,08:51:53,0.846,2.0,1.36,0.013
12/06/2023,08:52:52,0.860,2.0,1.374,0.014
12/06/2023,08:53:53,0.864,2.0,1.389,0.015
12/06/2023,08:54:53,0.883,2.0,1.404,0.015
12/06/2023,08:55:53,0.918,2.0,1.418,0.014
12/06/2023,08:56:53,0.952,2.0,1.434,0.016
12/06/2023,08:57:52,0.948,2.0,1.45,0.016
12/06/2023,08:58:53,0.946,2.0,1.466,0.016
12/06/2023,08:59:53,0.966,2.0,1.482,0.016
12/06/2023,09:00:53,1.021,2.0,1.498,0.016
12/06/2023,09:01:53,0.984,2.0,1.515,0.017
12/06/2023,09:02:53,0.993,2.0,1.531,0.016
12/06/2023,09:03:53,0.998,2.0,1.548,0.017
12/06/2023,09:04:53,1.058,2.0,1.565,0.017
12/06/2023,09:05:53,1.003,2.0,1.582,0.017
12/06/2023,09:06:53,0.939,2.0,1.599,0.017
12/06/2023,09:07:52,0.929,2.0,1.614,0.015
12/06/2023,09:08:53,1.010,2.0,1.63,0.016
12/06/2023,09:09:52,1.178,3.0,1.648,0.018
12/06/2023,09:10:53,1.260,3.0,1.669,0.021
12/06/2023,09:11:52,1.273,3.0,1.69,0.021
12/06/2023,09:12:52,1.371,3.0,1.712,0.022
12/06/2023,09:13:53,1.384,3.0,1.735,0.023
12/06/2023,09:14:53,1.252,3.0,1.757,0.022
12/06/2023,09:15:53,1.186,3.0,1.778,0.021
12/06/2023,09:16:52,1.250,3.0,1.797,0.019
12/06/2023,09:17:53,1.204,3.0,1.818,0.021
12/06/2023,09:18:52,0.994,2.0,1.836,0.018
12/06/2023,09:19:53,0.951,2.0,1.852,0.016
12/06/2023,09:20:52,0.930,2.0,1.868,0.016
12/06/2023,09:21:53,0.918,2.0,1.884,0.016
12/06/2023,09:22:52,0.941,2.0,1.899,0.015
12/06/2023,09:23:53,0.928,2.0,1.914,0.015
12/06/2023,09:24:53,0.910,2.0,1.929,0.015
12/06/2023,09:25:52,0.895,2.0,1.944,0.015
12/06/2023,09:26:53,0.900,2.0,1.959,0.015
12/06/2023,09:27:53,0.948,2.0,1.975,0.016
12/06/2023,09:28:53,0.963,2.0,1.991,0.016
12/06/2023,09:29:53,1.037,2.0,2.007,0.016
12/06/2023,09:30:53,1.011,2.0,2.024,0.017
12/06/2023,09:31:53,1.010,2.0,2.042,0.018
12/06/2023,09:32:53,1.043,2.0,2.059,0.017
12/06/2023,09:33:53,1.091,3.0,2.077,0.018
12/06/2023,09:34:53,1.133,3.0,2.096,0.019
12/06/2023,09:35:53,1.231,3.0,2.116,0.02
12/06/2023,09:36:53,1.188,3.0,2.135,0.019
12/06/2023,09:37:53,1.450,3.0,2.158,0.023
12/06/2023,09:38:53,1.359,3.0,2.181,0.023
12/06/2023,09:39:52,1.402,3.0,2.204,0.023
12/06/2023,09:40:53,1.279,3.0,2.225,0.021
12/06/2023,09:41:52,1.370,3.0,2.247,0.022
12/06/2023,09:42:53,1.372,3.0,2.27,0.023
12/06/2023,09:43:53,1.677,4.0,2.297,0.027
12/06/2023,09:44:53,1.607,4.0,2.324,0.027
12/06/2023,09:45:53,1.652,4.0,2.351,0.027
12/06/2023,09:46:52,1.359,3.0,2.377,0.026
12/06/2023,09:47:53,1.244,3.0,2.398,0.021
12/06/2023,09:48:53,1.347,3.0,2.42,0.022
12/06/2023,09:49:53,1.156,3.0,2.44,0.02
12/06/2023,09:50:53,1.138,3.0,2.459,0.019
12/06/2023,09:51:52,1.119,3.0,2.478,0.019
12/06/2023,09:52:53,1.091,3.0,2.497,0.019
12/06/2023,09:53:53,1.101,3.0,2.515,0.018
12/06/2023,09:54:53,1.137,3.0,2.534,0.019
12/06/2023,09:55:53,1.195,3.0,2.553,0.019
12/06/2023,09:56:53,1.251,3.0,2.576,0.023